Location: West Sayville
(40.7279°N, 73.0976°W)
Time: 08:02:07
(UTC+00:00)

YAOGAN 6 - Pass Details

Date: 29 October 2020
Orbit: 464 x 504 km, 97.0° (Epoch: 02 December)

Event Time Altitude Azimuth Distance (km) Brightness Sun altitude
Rises 22:24:50 0° 179° (S) 2,563 6.4 -6.9°
Reaches altitude 10° 22:26:56 10° 184° (S) 1,691 5.5 -7.3°
Maximum altitude 22:30:29 50° 261° (W) 645 3.7 -7.9°
Drops below altitude 10° 22:34:06 10° 338° (NNW) 1,720 5.5 -8.6°
Sets 22:36:15 0° 343° (NNW) 2,612 6.4 -9.0°
